Regional Weather Roundup
Issued by NWS

Home | Current Version | Previous Version | Graphics & Text | Print | Product List | Glossary On
Versions: 1 2 3 4 5 6 7 8 9 10 11 12 13 14 15 16 17 18 19 20 21 22 23 24 25 26 27 28 29 30 31 32 33 34 35 36 37 38 39 40 41 42 43 44 45 46 47 48 49 50
000
ASUS43 KIND 151909
RWRIN

WEATHER ROUNDUP FOR INDIANA
NATIONAL WEATHER SERVICE INDIANAPOLIS IN
300 PM EDT MON SEP 15 2014

NOTE: "FAIR" INDICATES FEW OR NO CLOUDS BELOW 12,000 FEET WITH NO
SIGNIFICANT WEATHER AND/OR OBSTRUCTIONS TO VISIBILITY.

* - STATION DOES NOT REPORT WEATHER SUCH AS PRECIPITATION OR FOG.

+ - STATION NOT QUALITY CONTROLLED BY THE NATIONAL WEATHER SERVICE.
    USE DATA WITH CAUTION...ESPECIALLY DEWPOINT AND RELATIVE
    HUMIDITY OBSERVATIONS.

INZ001>003-010>013-019-020-152000-
NORTHWEST INDIANA

CITY           SKY/WX    TMP DP  RH WIND       PRES   REMARKS
KNOX *+        CLOUDY    56  51  81 SW6       30.11F
LA PORTE +     CLOUDY    57  50  77 SW10      30.11F
MICHIGAN CITY+ CLOUDY    59  52  77 S9        30.10F
MONTICELLO +   LGT RAIN  55  54  98 CALM      30.11F
RENSSELAER +   CLOUDY    55  55 100 CALM      30.11F
VALPARAISO     CLOUDY    57  50  77 S9        30.12F

$$

LMZ046-743>745-152000-
SOUTHERN LAKE MICHIGAN

STATION/POSITION TIME  TEMP WIND        PRES
                       AIR  DIR/SP/G
                 (UTC) (F)  (DEG/KT/KT) (MB)
MICHIGAN CITY    1900   59  180/ 11/ 17   N/A

$$

INZ004-005-014>016-021>024-152000-
NORTH CENTRAL INDIANA

CITY           SKY/WX    TMP DP  RH WIND       PRES   REMARKS
ELKHART        CLOUDY    59  50  72 SW6       30.11F
GOSHEN         CLOUDY    60  51  72 S7        30.12F
LOGANSPORT +   LGT RAIN  54  54 100 N3        30.13S
PERU/GRISSOM   LGT RAIN  56  56 100 N3        30.12R
ROCHESTER +    LGT RAIN  57  54  88 CALM      30.12F
SOUTH BEND     CLOUDY    60  50  69 SW10      30.11F
WARSAW +       CLOUDY    55  50  82 CALM      30.12F

$$

INZ006>009-017-018-025>027-152000-
NORTHEAST INDIANA

CITY           SKY/WX    TMP DP  RH WIND       PRES   REMARKS
ANGOLA *+      CLOUDY    57  48  72 SW5       30.12F
AUBURN +       CLOUDY    57  52  82 CALM      30.13F
FORT WAYNE     LGT RAIN  57  54  89 N3        30.14F
HUNTINGTON +   CLOUDY    55  55  97 N6        30.12F

$$

INZ028-029-035-036-043>045-051>053-152000-
WEST CENTRAL INDIANA

CITY           SKY/WX    TMP DP  RH WIND       PRES   REMARKS
GREENCASTLE +  RAIN      55  54  94 CALM      30.14S
LAFAYETTE      LGT RAIN  55  53  93 CALM      30.09S
TERRE HAUTE    TSTM      59  55  87 N7        30.18R FOG

$$

INZ030>032-037>040-046>048-054>057-064-065-152000-
CENTRAL INDIANA

CITY           SKY/WX    TMP DP  RH WIND       PRES   REMARKS
ANDERSON       LGT RAIN  59  54  82 CALM      30.14
CP ATTERBURY + CLOUDY    66  46  48 CALM      30.17F
COLUMBUS       CLOUDY    68  48  49 NW6       30.17F
FRANKFORT +    RAIN     N/A N/A N/A S6        30.12R
INDIANAPOLIS   TSTM      58  52  80 S9        30.12F
-EAGLE CREEK   RAIN      58  53  84 VRB5      30.13F
KOKOMO *+      CLOUDY    57  54  88 NW12      30.13R
MARION +       LGT RAIN  55  54  96 S10       30.08F
MT COMFORT *+  CLOUDY    59  54  82 S7        30.13F
SHELBYVILLE    CLOUDY    67  51  56 W7        30.15F
ZIONSVILLE +   LGT RAIN  57  53  84 S7        30.13R

$$

INZ033-034-041-042-049-050-058-059-152000-
EAST CENTRAL INDIANA

CITY           SKY/WX    TMP DP  RH WIND       PRES   REMARKS
MUNCIE         RAIN      59  53  80 CALM      30.12F

$$

INZ060-061-067>069-081>083-085>088-152000-
SOUTHWEST INDIANA

CITY           SKY/WX    TMP DP  RH WIND       PRES   REMARKS
EVANSVILLE     CLOUDY    75  55  49 S6        30.11F
WASHINGTON +   CLOUDY    70  53  54 E7        30.12F

$$

INZ062-063-066-070>080-084-089>092-152000-
SOUTH CENTRAL AND SOUTHEAST INDIANA

CITY           SKY/WX    TMP DP  RH WIND       PRES   REMARKS
BLOOMINGTON    CLOUDY    66  52  60 NE6       30.15F
NORTH VERNON + CLOUDY    68  52  56 W7        30.18

$$



USA.gov is the U.S. government's official web portal to all federal, state and local government web resources and services.